[[{"header":{"parameterUnit":"m.s-1","parameterCategory":1,"la1":30.2991,"la2":30.254,"lo1":-89.0895,"lo2":-89.0444,"dy":0.0017,"dx":0.0017,"nx":28,"ny":28,"refTime":"2025-11-21T09:00:00:Z","depth":0,"parameterNumber":2,"parameterNumberName":"U-component_of_WINDS"},"data":[0,0,0,0,0,0,0,0,0,0,0,0,0,0,0,0,0,0,0,0,0,0,0,0,0,0,0,0,0,0,0,0,0,0,0,0,0,0,0,0,0,0,0,0,0,0,0,0,0,0,0,0,0,0,0,0,0,0,1.5792,1.5793,0,1.592,1.5922,1.5923,1.5917,1.5916,1.5914,1.5912,1.6046,1.6051,1.6056,0,0,0,0,0,0,0,0,0,0,0,0,0,1.5543,1.5547,1.5792,1.5793,1.5795,1.592,1.5922,1.5924,1.5918,1.5916,1.5913,1.5911,1.6044,1.605,1.6056,0,0,0,0,0,0,0,0,0,0,0,0,0,1.5659,1.5549,1.5791,1.5807,1.581,1.592,1.5922,1.5924,1.5918,1.5916,1.5913,1.591,1.6042,1.605,1.6057,1.6161,0,0,1.6081,1.6085,0,0,0,0,0,0,0,0,1.5652,1.5668,1.5803,1.5806,1.5809,1.59,1.5883,1.6004,1.5919,1.5877,1.5912,1.5909,1.6,1.6011,1.6041,1.6167,1.6173,1.6082,1.6087,1.609,1.6093,0,0,0,0,0,0,0,1.5644,1.5663,1.5843,1.5805,1.5809,1.5808,1.5822,1.5906,1.5952,1.5881,1.588,1.5896,1.6001,1.6033,1.6044,1.6175,1.6082,1.6089,1.6094,1.6097,1.6394,1.6397,0,0,0,0,0,0,1.5633,1.5656,1.5839,1.5846,1.5722,1.5815,1.583,1.5874,1.5951,1.596,1.5898,1.5895,1.6021,1.6035,1.6049,1.6176,1.609,1.6098,1.6102,1.639,1.6394,1.6398,0,0,0,0,0,0,1.5627,1.5649,1.5833,1.5751,1.5775,1.5822,1.5871,1.5878,1.591,1.5964,1.5973,1.5923,1.602,1.6038,1.6133,1.618,1.6101,1.6108,1.6387,1.6392,1.6396,1.643,0,0,0,0,0,0,1.562,1.5647,1.5686,1.5752,1.5779,1.5915,1.5874,1.5882,1.5924,1.5921,1.599,1.5999,1.6019,1.6121,1.6141,1.619,1.6115,1.6383,1.6389,1.6394,1.6425,1.6436,1.6444,0,0,0,0,0,1.5611,1.5691,1.5689,1.5711,1.5829,1.5918,1.5933,1.5955,1.5928,1.5968,1.6003,1.5996,1.6172,1.6131,1.6153,1.6205,1.638,1.6387,1.6394,1.6421,1.6434,1.6444,0,0,0,0,0,0,1.563,1.57,1.5698,1.5801,1.5854,1.5917,1.5968,1.5967,1.6029,1.6024,1.6048,1.6064,1.616,1.6192,1.6145,1.631,1.6272,1.6284,1.6285,1.6298,1.6307,1.6298,1.6121,0,0,0,0,0,1.5646,1.5712,1.577,1.5855,1.5882,1.5921,1.596,1.5972,1.6027,1.6049,1.6091,1.6146,1.6213,1.6257,1.6322,1.643,1.6445,1.6476,1.6486,1.6493,1.6504,1.6564,1.6578,1.6421,1.6421,1.6421,0,0,1.5681,1.5727,1.5767,1.5861,1.5902,1.5971,1.5939,1.6012,1.6063,1.6061,1.6154,1.6186,1.6249,1.6351,1.6398,1.6381,1.655,1.6502,1.6508,1.6514,1.6572,1.6587,1.66,1.6426,1.6425,1.6424,0,0,1.5778,1.5819,1.5895,1.5938,1.6002,1.6027,1.6045,1.6109,1.613,1.6224,1.6223,1.6285,1.64,1.6445,1.6483,1.6597,1.6594,1.6618,1.6669,1.6727,1.6739,1.675,1.6792,1.6806,1.6628,1.6628,1.6628,0,1.5813,1.5915,1.5935,1.6009,1.605,1.6051,1.6128,1.6169,1.6251,1.628,1.6259,1.6405,1.6447,1.656,1.6588,1.6618,1.664,1.661,1.6736,1.6747,1.6758,1.6798,1.6813,1.663,1.663,1.663,1.663,0,1.5954,1.6025,1.6079,1.6158,1.6206,1.6281,1.6314,1.6359,1.6367,1.6395,1.649,1.6541,1.6616,1.6644,1.6652,1.6758,1.6746,1.673,1.6693,1.6775,1.6813,1.6828,1.6634,1.6633,1.6632,1.6632,0,0,1.6067,1.6157,1.6176,1.6212,1.6283,1.6338,1.6414,1.6487,1.6527,1.6583,1.6648,1.6746,1.6732,1.6775,1.6788,1.6839,1.6928,1.6818,1.682,1.6837,1.7049,1.706,1.7078,1.6926,1.6929,1.6931,1.7044,0,1.6172,1.6306,1.6327,1.6445,1.6511,1.6513,1.6579,1.663,1.6658,1.6718,1.6749,1.6819,1.6795,1.6821,1.6871,1.6906,1.6971,1.6898,1.6987,1.699,1.6972,1.7097,1.711,1.7213,1.7058,1.7061,1.7063,0,1.6313,1.6373,1.6497,1.6559,1.6588,1.6647,1.6716,1.6774,1.6832,1.6849,1.6897,1.6904,1.6984,1.6943,1.7053,1.7004,1.7041,1.7064,1.7069,1.7078,1.7032,1.7111,1.7247,1.7263,1.7086,1.7084,1.7083,0,1.6383,1.6495,1.6585,1.6615,1.669,1.6731,1.6764,1.682,1.6863,1.6923,1.6952,1.7021,1.7059,1.7113,1.7139,1.7107,1.7248,1.7209,1.7265,1.7265,1.7295,1.7293,1.744,1.7318,1.7318,1.7318,1.7318,0,1.6499,1.6575,1.6617,1.6672,1.6758,1.6781,1.6866,1.6898,1.6947,1.7009,1.7014,1.7072,1.7103,1.7166,1.7187,1.7276,1.7293,1.7309,1.7314,1.7309,1.7307,1.7334,1.7328,1.7322,1.7321,1.732,1.732,0,1.6592,1.6623,1.6721,1.6783,1.6801,1.6861,1.6915,1.6969,1.6997,1.7075,1.7094,1.7138,1.7212,1.7244,1.7335,1.7349,1.7451,1.745,1.7431,1.7433,1.7487,1.7482,1.7657,1.7682,1.7544,1.7545,1.7546,0,1.6664,1.6723,1.6791,1.6833,1.6867,1.6934,1.6978,1.7003,1.7049,1.712,1.7165,1.7239,1.73,1.7419,1.7459,1.7529,1.753,1.7587,1.7541,1.7534,1.7532,1.7528,1.7535,1.7595,1.7597,1.7598,1.7599,0,1.6788,1.6801,1.6863,1.6932,1.6984,1.7039,1.7093,1.7127,1.7161,1.7212,1.7288,1.7335,1.7428,1.7502,1.7575,1.761,1.7611,1.7613,1.763,1.7625,1.7612,1.7621,1.7455,1.7609,1.7608,1.7607,1.7607,1.7606,1.6873,1.6926,1.6982,1.7052,1.7096,1.7146,1.72,1.7234,1.7298,1.7375,1.7386,1.7468,1.7525,1.7622,1.766,1.7724,1.771,1.7734,1.7741,1.7746,1.775,1.7601,1.7738,1.7737,1.7737,1.7737,1.7737,0,1.6998,1.7035,1.7099,1.7174,1.7229,1.7225,1.7284,1.7331,1.7402,1.7455,1.7515,1.7602,1.7674,1.772,1.7793,1.7836,1.7838,1.7854,1.7851,1.7859,1.7758,1.7737,1.7851,1.7851,1.7851,1.7851,1.7851,1.7851,1.7069,1.7158,1.7178,1.7288,1.7325,1.7404,1.7438,1.7485,1.7528,1.7625,1.7685,1.7714,1.7765,1.7841,1.7907,1.7919,1.7945,1.7963,1.7974,1.7878,1.7866,1.7855,1.7835,1.7968,1.7968,1.8069,1.807,1.8071]},{"header":{"parameterUnit":"m.s-1","parameterCategory":1,"la1":30.2991,"la2":30.254,"lo1":-89.0895,"lo2":-89.0444,"dy":0.0017,"dx":0.0017,"nx":28,"ny":28,"refTime":"2025-11-21T09:00:00:Z","depth":0,"parameterNumber":3,"parameterNumberName":"V-component_of_WINDS"},"data":[0,0,0,0,0,0,0,0,0,0,0,0,0,0,0,0,0,0,0,0,0,0,0,0,0,0,0,0,0,0,0,0,0,0,0,0,0,0,0,0,0,0,0,0,0,0,0,0,0,0,0,0,0,0,0,0,0,0,2.6663,2.6664,0,2.6771,2.6773,2.6774,2.6773,2.6772,2.677,2.6769,2.688,2.6884,2.6889,0,0,0,0,0,0,0,0,0,0,0,0,0,2.6456,2.646,2.6663,2.6665,2.6666,2.6771,2.6773,2.6774,2.6773,2.6772,2.677,2.6768,2.6879,2.6884,2.6889,0,0,0,0,0,0,0,0,0,0,0,0,0,2.6553,2.6461,2.6663,2.6678,2.6681,2.6771,2.6773,2.6775,2.6774,2.6772,2.677,2.6768,2.6877,2.6883,2.689,2.6972,0,0,2.6909,2.6912,0,0,0,0,0,0,0,0,2.6548,2.6561,2.6675,2.6677,2.668,2.6757,2.674,2.6841,2.6774,2.6738,2.6769,2.6766,2.6841,2.685,2.6875,2.6977,2.6982,2.691,2.6914,2.6917,2.6918,0,0,0,0,0,0,0,2.6541,2.6556,2.6706,2.6676,2.668,2.668,2.6691,2.676,2.68,2.6741,2.6742,2.6754,2.6842,2.6869,2.6878,2.6984,2.691,2.6915,2.6919,2.6922,2.7159,2.7162,0,0,0,0,0,0,2.6531,2.6551,2.6703,2.6709,2.6607,2.6685,2.6698,2.6734,2.68,2.6807,2.6756,2.6754,2.6859,2.687,2.6882,2.6983,2.6917,2.6923,2.6926,2.7157,2.716,2.7162,0,0,0,0,0,0,2.6527,2.6545,2.6698,2.663,2.665,2.6691,2.6732,2.6738,2.6765,2.6811,2.6818,2.6776,2.6858,2.6873,2.695,2.6987,2.6925,2.6931,2.7154,2.7158,2.7161,2.7186,0,0,0,0,0,0,2.6521,2.6543,2.6575,2.6631,2.6653,2.6765,2.6734,2.6741,2.6776,2.6774,2.6831,2.6839,2.6857,2.694,2.6956,2.6995,2.6936,2.7151,2.7156,2.716,2.7183,2.7191,2.7197,0,0,0,0,0,2.6513,2.6578,2.6577,2.6595,2.6694,2.6767,2.678,2.6799,2.6778,2.6811,2.684,2.6837,2.698,2.6948,2.6966,2.7007,2.7149,2.7154,2.716,2.7179,2.7189,2.7197,0,0,0,0,0,0,2.6526,2.6586,2.6585,2.6669,2.6713,2.6767,2.6808,2.6809,2.686,2.6856,2.6878,2.6891,2.6968,2.6995,2.6958,2.709,2.7062,2.7071,2.707,2.708,2.7087,2.708,2.6942,0,0,0,0,0,2.6538,2.6592,2.6641,2.6711,2.6733,2.6767,2.6799,2.681,2.6857,2.6875,2.691,2.6956,2.7011,2.7046,2.71,2.7186,2.7199,2.7223,2.723,2.7236,2.7244,2.7293,2.7304,2.7181,2.7181,2.718,0,0,2.6565,2.6604,2.6637,2.6715,2.675,2.6806,2.6782,2.6842,2.6884,2.6884,2.696,2.6987,2.7039,2.7121,2.7159,2.7146,2.7281,2.7243,2.7247,2.7253,2.7299,2.7311,2.7322,2.7184,2.7184,2.7183,0,0,2.6642,2.6677,2.6739,2.6774,2.6828,2.685,2.6864,2.6918,2.6936,2.7012,2.7013,2.7063,2.7157,2.7194,2.7225,2.7315,2.7314,2.7332,2.7371,2.7418,2.7428,2.7437,2.747,2.7481,2.734,2.734,2.734,0,2.6668,2.6753,2.6771,2.6831,2.6866,2.6867,2.6931,2.6964,2.7033,2.7056,2.704,2.7159,2.7194,2.7285,2.7307,2.7331,2.7349,2.7326,2.7425,2.7434,2.7442,2.7474,2.7487,2.7342,2.7341,2.7341,2.7341,0,2.6783,2.6841,2.6885,2.695,2.6989,2.7051,2.7078,2.7116,2.7123,2.7146,2.7224,2.7265,2.7327,2.7349,2.7357,2.7442,2.7432,2.742,2.7392,2.7456,2.7486,2.7499,2.7344,2.7344,2.7343,2.7343,0,0,2.6873,2.6947,2.6963,2.6993,2.7051,2.7097,2.7158,2.7218,2.725,2.7296,2.7349,2.7428,2.7418,2.7453,2.7464,2.7505,2.7575,2.7489,2.749,2.7504,2.7672,2.7682,2.7696,2.7574,2.7576,2.7578,2.7668,0,2.6957,2.7066,2.7084,2.718,2.7235,2.7237,2.729,2.7332,2.7355,2.7404,2.743,2.7486,2.7467,2.7489,2.7529,2.7558,2.7609,2.7552,2.7624,2.7626,2.7613,2.7711,2.7722,2.7805,2.768,2.7682,2.7683,0,2.7071,2.712,2.7222,2.7273,2.7296,2.7344,2.7401,2.7448,2.7495,2.7509,2.7548,2.7555,2.7618,2.7586,2.7675,2.7635,2.7665,2.7684,2.7688,2.7697,2.766,2.7725,2.7832,2.7845,2.7702,2.7701,2.7699,0,2.7128,2.7219,2.7292,2.7317,2.7378,2.7412,2.7439,2.7484,2.7519,2.7568,2.7592,2.7647,2.7678,2.7722,2.7743,2.7718,2.7831,2.78,2.7845,2.7845,2.7871,2.7869,2.7986,2.7887,2.7887,2.7887,2.7886,0,2.7222,2.7284,2.7319,2.7364,2.7433,2.7453,2.7521,2.7547,2.7587,2.7637,2.7642,2.7689,2.7714,2.7765,2.7782,2.7853,2.7867,2.788,2.7884,2.7881,2.788,2.7903,2.7898,2.789,2.7889,2.7889,2.7888,0,2.7298,2.7324,2.7403,2.7454,2.7468,2.7518,2.7561,2.7605,2.7627,2.7691,2.7707,2.7742,2.7802,2.7827,2.7901,2.7912,2.7994,2.7993,2.7979,2.7981,2.8025,2.8021,2.8162,2.8182,2.8068,2.8069,2.807,0,2.7357,2.7405,2.7461,2.7495,2.7523,2.7577,2.7613,2.7633,2.767,2.7727,2.7764,2.7824,2.7873,2.7968,2.8001,2.8057,2.8058,2.8104,2.8067,2.8062,2.8061,2.8059,2.8064,2.8111,2.8112,2.8113,2.8114,0,2.746,2.747,2.7521,2.7577,2.7619,2.7664,2.7708,2.7735,2.7762,2.7803,2.7864,2.7902,2.7977,2.8037,2.8095,2.8123,2.8124,2.8125,2.8139,2.8137,2.8127,2.8134,2.7999,2.8122,2.8122,2.8121,2.812,2.812,2.753,2.7573,2.7619,2.7676,2.7711,2.7752,2.7796,2.7823,2.7874,2.7937,2.7945,2.8011,2.8056,2.8134,2.8164,2.8216,2.8205,2.8224,2.823,2.8235,2.8238,2.8117,2.8227,2.8226,2.8226,2.8226,2.8226,0,2.7635,2.7664,2.7716,2.7777,2.7822,2.7817,2.7865,2.7903,2.7961,2.8003,2.8051,2.8121,2.8179,2.8215,2.8273,2.8308,2.831,2.8322,2.8321,2.8328,2.8244,2.8228,2.832,2.832,2.832,2.832,2.832,2.832,2.7694,2.7767,2.7782,2.7872,2.7901,2.7965,2.7993,2.8031,2.8065,2.8143,2.8191,2.8214,2.8254,2.8315,2.8367,2.8377,2.8399,2.8413,2.8421,2.8343,2.8333,2.8324,2.8309,2.8417,2.8417,2.8501,2.8501,2.8502]}]]